Oscoda, MI

10:04 AM EST on November 21, 2019 (GMT -0500)
Oscoda-Wurtsmith

Weather History for KOSC - August, 2019

Change the Weather History Date:

Tuesday, August 20, 2019

  Actual Average Record
Temperature  
Mean Temperature 69 °F -  
Max Temperature 82 °F 74 °F 88 °F (2013)
Min Temperature 56 °F 56 °F 41 °F (2008)
Cooling Degree Days 4    
Growing Degree Days 19 (Base 50)    
Moisture  
Dew Point 60 °F    
Average Humidity 74    
Maximum Humidity 100    
Minimum Humidity 41    
Precipitation  
Precipitation 0.00 in - - ()
Sea Level Pressure  
Sea Level Pressure 29.99 in    
Wind  
Wind Speed 2 mph (South)    
Max Wind Speed 9 mph    
Max Gust Speed -    
Visibility 10 miles    
Events      
Averages and records for this station are not official NWS values.
T = Trace of Precipitation, MM = Missing Value Source: NWS Daily Summary

Daily Weather History Graph

Daily Weather History Graph

Search for Another Location

Airport or City:

Astronomy

Aug. 20, 2019 Rise Set
Actual Time 6:42 AM EDT 8:31 PM EDT
Civil Twilight 6:10 AM EDT 9:02 PM EDT
Nautical Twilight 5:32 AM EDT 9:39 PM EDT
Astronomical Twilight 4:51 AM EDT 10:20 PM EDT
Moon 11:07 PM EDT (8/20) 11:29 AM EDT (8/20)
Length of Visible Light 14h 51m
Length of Day
13h 49m
Waning Gibbous, 78% of the Moon is Illuminated
Aug 20
Waning Gibbous
Aug 23
Last Quarter
Aug 30
New
Sep 5
First Quarter
Sep 14
Full

Hourly Weather History & Observations

Time (EDT) Temp. Heat Index Dew Point Humidity Pressure Visibility Wind Dir Wind Speed Gust Speed Precip Events Conditions
12:15 AM 63.9 °F - 63.7 °F 99% 30.02 in 10.0 mi Calm Calm - N/A   Clear
12:16 AM 63.7 °F - 63.7 °F 100% 30.02 in 10.0 mi Calm Calm - N/A   Clear
12:35 AM 62.8 °F - 62.2 °F 98% 30.03 in 10.0 mi Calm Calm - N/A   Clear
12:59 AM 61.2 °F - 61.2 °F 100% 30.03 in 10.0 mi WSW 3.5 mph - N/A   Clear
1:17 AM 62.2 °F - 62.2 °F 100% 30.03 in 10.0 mi Calm Calm - N/A   Clear
1:35 AM 62.4 °F - 62.4 °F 100% 30.03 in 10.0 mi Calm Calm - N/A   Clear
1:55 AM 61.0 °F - 60.8 °F 99% 30.03 in 10.0 mi NW 8.1 mph - N/A   Clear
1:56 AM 61.2 °F - 61.2 °F 100% 30.03 in 10.0 mi NW 9.2 mph - N/A   Clear
2:15 AM 61.7 °F - 61.7 °F 100% 30.04 in 10.0 mi Calm Calm - N/A   Clear
2:20 AM 61.9 °F - 61.9 °F 100% 30.04 in 10.0 mi Calm Calm - N/A   Clear
2:38 AM 62.4 °F - 62.4 °F 100% 30.04 in 10.0 mi Calm Calm - N/A   Clear
2:56 AM 62.8 °F - 62.8 °F 100% 30.04 in 10.0 mi Calm Calm - N/A   Clear
3:15 AM 61.2 °F - 61.2 °F 100% 30.04 in 10.0 mi Calm Calm - N/A   Clear
3:35 AM 58.6 °F - 58.6 °F 100% 30.04 in 10.0 mi Calm Calm - N/A   Clear
3:36 AM 58.6 °F - 58.6 °F 100% 30.04 in 10.0 mi Calm Calm - N/A   Clear
3:59 AM 58.3 °F - 58.3 °F 100% 30.04 in 10.0 mi NW 3.5 mph - N/A   Clear
4:17 AM 59.0 °F - 59.0 °F 100% 30.05 in 10.0 mi Calm Calm - N/A   Clear
4:35 AM 59.0 °F - 59.0 °F 100% 30.05 in 7.0 mi Calm Calm - N/A   Clear
4:55 AM 59.2 °F - 59.2 °F 100% 30.05 in 10.0 mi Calm Calm - N/A   Clear
5:15 AM 57.2 °F - 57.2 °F 100% 30.06 in 10.0 mi Calm Calm - N/A   Clear
5:19 AM 57.9 °F - 57.9 °F 100% 30.06 in 10.0 mi Calm Calm - N/A   Clear
5:38 AM 57.2 °F - 57.2 °F 100% 30.05 in 10.0 mi Calm Calm - N/A   Clear
5:56 AM 57.0 °F - 57.0 °F 100% 30.05 in 10.0 mi Calm Calm - N/A   Clear
6:15 AM 56.8 °F - 56.8 °F 100% 30.05 in 10.0 mi Calm Calm - N/A   Clear
6:35 AM 56.1 °F - 55.9 °F 99% 30.05 in 10.0 mi Calm Calm - N/A   Clear
6:36 AM 56.3 °F - 56.1 °F 99% 30.05 in 10.0 mi Calm Calm - N/A   Clear
6:59 AM 56.3 °F - 56.1 °F 99% 30.05 in 10.0 mi Calm Calm - N/A   Clear
7:17 AM 56.5 °F - 56.5 °F 100% 30.05 in 10.0 mi Calm Calm - N/A   Clear
7:35 AM 56.8 °F - 55.2 °F 94% 30.04 in 10.0 mi Calm Calm - N/A   Clear
7:36 AM 56.8 °F - 55.4 °F 95% 30.04 in 10.0 mi Calm Calm - N/A   Clear
7:55 AM 59.0 °F - 57.4 °F 94% 30.04 in 10.0 mi Calm Calm - N/A   Clear
7:56 AM 59.0 °F - 57.4 °F 94% 30.04 in 10.0 mi Calm Calm - N/A   Clear
8:15 AM 61.0 °F - 57.0 °F 87% 30.03 in 10.0 mi Calm Calm - N/A   Clear
8:38 AM 62.6 °F - 56.8 °F 81% 30.02 in 10.0 mi Calm Calm - N/A   Clear
8:56 AM 64.4 °F - 56.1 °F 74% 30.01 in 10.0 mi Calm Calm - N/A   Clear
9:15 AM 67.1 °F - 56.3 °F 68% 30.03 in 10.0 mi Calm Calm - N/A   Clear
9:16 AM 67.1 °F - 56.5 °F 69% 30.03 in 10.0 mi Calm Calm - N/A   Clear
9:35 AM 69.8 °F - 57.6 °F 65% 30.04 in 10.0 mi Calm Calm - N/A   Clear
9:59 AM 72.3 °F - 57.6 °F 60% 30.03 in 10.0 mi Calm Calm - N/A   Clear
10:17 AM 74.1 °F - 56.7 °F 54% 30.04 in 10.0 mi Calm Calm - N/A   Clear
10:36 AM 75.2 °F - 52.7 °F 45% 30.04 in 10.0 mi Calm Calm - N/A   Clear
10:55 AM 75.7 °F - 54.3 °F 47% 30.04 in 10.0 mi South 3.5 mph - N/A   Clear
11:15 AM 76.6 °F - 54.9 °F 47% 30.05 in 10.0 mi SSE 4.6 mph - N/A   Clear
11:20 AM 77.0 °F - 55.4 °F 47% 30.05 in 10.0 mi South 5.8 mph - N/A   Clear
11:38 AM 78.3 °F - 54.5 °F 44% 30.05 in 10.0 mi Calm Calm - N/A   Clear
11:56 AM 78.8 °F - 53.2 °F 41% 30.04 in 10.0 mi South 6.9 mph - N/A   Clear
12:15 PM 80.1 °F 80.1 °F 54.9 °F 42% 30.03 in 10.0 mi SSW 6.9 mph - N/A   Clear
12:35 PM 80.2 °F 80.4 °F 56.1 °F 43% 30.01 in 10.0 mi ESE 4.6 mph - N/A   Clear
12:59 PM 79.3 °F - 55.8 °F 44% 30.02 in 10.0 mi ESE 9.2 mph - N/A   Clear
1:17 PM 78.3 °F - 55.4 °F 45% 30.01 in 10.0 mi ESE 6.9 mph - N/A   Clear
1:35 PM 77.9 °F - 55.0 °F 45% 30.02 in 10.0 mi ESE 6.9 mph - N/A   Mostly Cloudy
1:36 PM 77.7 °F - 55.0 °F 45% 30.02 in 10.0 mi ESE 6.9 mph - N/A   Mostly Cloudy
1:55 PM 78.3 °F - 56.7 °F 47% 30.01 in 10.0 mi SSE 8.1 mph - N/A   Overcast
1:56 PM 78.4 °F - 56.7 °F 47% 30.01 in 10.0 mi South 8.1 mph - N/A   Overcast
2:15 PM 80.8 °F 80.8 °F 56.5 °F 43% 29.98 in 10.0 mi South 9.2 mph - N/A   Scattered Clouds
2:20 PM 80.4 °F 80.5 °F 55.9 °F 43% 29.98 in 10.0 mi South 8.1 mph - N/A   Scattered Clouds
2:37 PM 80.1 °F 80.3 °F 56.3 °F 44% 29.97 in 10.0 mi SSE 8.1 mph - N/A   Scattered Clouds
2:56 PM 81.1 °F 81.1 °F 56.5 °F 43% 29.96 in 10.0 mi South 9.2 mph - N/A   Scattered Clouds
3:15 PM 82.6 °F 82.2 °F 57.2 °F 42% 29.96 in 10.0 mi SW 6.9 mph - N/A   Scattered Clouds
3:16 PM 82.4 °F 82.0 °F 57.4 °F 42% 29.96 in 10.0 mi SW 5.8 mph - N/A   Scattered Clouds
3:35 PM 81.9 °F 81.9 °F 58.6 °F 45% 29.97 in 10.0 mi SSW 9.2 mph - N/A   Mostly Cloudy
3:59 PM 79.9 °F - 59.7 °F 50% 29.98 in 10.0 mi SE 6.9 mph - N/A   Overcast
4:17 PM 78.6 °F - 59.9 °F 52% 29.97 in 10.0 mi South 5.8 mph - N/A   Overcast
4:35 PM 79.0 °F - 60.6 °F 53% 29.97 in 10.0 mi South 5.8 mph - N/A   Overcast
4:36 PM 79.2 °F - 60.3 °F 52% 29.97 in 10.0 mi South 4.6 mph - N/A   Mostly Cloudy
4:55 PM 80.1 °F 80.8 °F 59.5 °F 49% 29.95 in 10.0 mi South 4.6 mph - N/A   Scattered Clouds
4:56 PM 80.1 °F 80.9 °F 59.7 °F 50% 29.95 in 10.0 mi South 5.8 mph - N/A   Scattered Clouds
5:15 PM 80.1 °F 81.0 °F 60.6 °F 51% 29.94 in 10.0 mi South 3.5 mph - N/A   Clear
5:20 PM 80.2 °F 81.1 °F 60.8 °F 51% 29.93 in 10.0 mi SSW 4.6 mph - N/A   Clear
5:37 PM 80.2 °F 81.4 °F 62.2 °F 54% 29.92 in 10.0 mi SSE 6.9 mph - N/A   Clear
5:56 PM 79.9 °F - 62.6 °F 55% 29.90 in 10.0 mi SE 3.5 mph - N/A   Clear
6:15 PM 78.8 °F - 63.5 °F 59% 29.90 in 10.0 mi ESE 5.8 mph - N/A   Clear
6:16 PM 78.8 °F - 63.5 °F 59% 29.90 in 10.0 mi SE 5.8 mph - N/A   Clear
6:35 PM 77.5 °F - 63.1 °F 61% 29.90 in 10.0 mi SE 5.8 mph - N/A   Clear
6:59 PM 76.5 °F - 62.8 °F 62% 29.90 in 10.0 mi South 5.8 mph - N/A   Clear
7:17 PM 75.6 °F - 64.4 °F 68% 29.90 in 10.0 mi SSE 5.8 mph - N/A   Clear
7:35 PM 74.5 °F - 65.3 °F 73% 29.90 in 10.0 mi South 5.8 mph - N/A   Clear
7:36 PM 74.5 °F - 65.3 °F 73% 29.90 in 10.0 mi South 4.6 mph - N/A   Clear
7:55 PM 73.9 °F - 65.3 °F 74% 29.90 in 10.0 mi South 5.8 mph - N/A   Clear
8:15 PM 73.0 °F - 65.3 °F 77% 29.90 in 10.0 mi WSW 4.6 mph - N/A   Clear
8:38 PM 72.3 °F - 63.9 °F 75% 29.90 in 10.0 mi South 3.5 mph - N/A   Clear
8:56 PM 72.0 °F - 64.4 °F 77% 29.90 in 10.0 mi SW 3.5 mph - N/A   Clear
9:15 PM 71.6 °F - 64.4 °F 78% 29.90 in 10.0 mi South 3.5 mph - N/A   Clear
9:35 PM 69.1 °F - 64.4 °F 85% 29.90 in 10.0 mi WSW 5.8 mph - N/A   Clear
9:59 PM 69.8 °F - 64.6 °F 83% 29.90 in 10.0 mi SW 4.6 mph - N/A   Clear
10:16 PM 69.8 °F - 65.1 °F 85% 29.90 in 10.0 mi WSW 3.5 mph - N/A   Clear
10:35 PM 69.3 °F - 65.7 °F 88% 29.90 in 10.0 mi SW 5.8 mph - N/A   Clear
10:36 PM 69.3 °F - 65.8 °F 89% 29.90 in 10.0 mi SW 5.8 mph - N/A   Clear
10:55 PM 69.8 °F - 66.4 °F 89% 29.90 in 10.0 mi SW 4.6 mph - N/A   Clear
11:15 PM 68.5 °F - 67.8 °F 98% 29.90 in 10.0 mi SW 3.5 mph - N/A   Clear
11:38 PM 68.2 °F - 68.0 °F 99% 29.90 in 10.0 mi Calm Calm - N/A   Clear
11:56 PM 67.5 °F - 66.7 °F 98% 29.90 in 10.0 mi Calm Calm - N/A   Clear